Wind_Speed
20 20 19 18 19 18 17 16 14 12 12 11 11 10 9 10 11 11 11 12 12 12 10 10 10 10 10 10 9 11 10 11 11 11 11 11 11 11 11 11 11 10 9 9
20 19 18 19 19 19 18 16 13 12 12 12 12 12 11 11 11 11 11 12 12 13 12 11 10 10 10 10 10 10 10 11 11 11 11 11 11 11 11 11 10 10 10 10
20 18 18 18 19 18 18 16 14 13 13 14 14 14 13 12 11 11 12 13 13 13 12 12 12 11 11 10 10 10 11 11 11 11 11 11 11 12 12 11 10 10 10 10
20 18 18 19 19 18 17 15 15 14 14 15 16 16 14 13 12 12 12 13 13 13 13 13 13 12 12 12 11 11 11 12 11 11 11 11 11 12 12 11 10 10 10 10
19 18 18 18 18 17 16 15 15 15 17 17 17 17 14 14 14 12 12 13 13 13 12 13 13 13 14 13 13 13 12 12 12 12 11 11 12 12 12 11 11 10 10 10
21 20 19 18 17 18 17 18 18 18 18 19 17 17 15 15 15 14 13 14 14 13 13 13 13 14 14 15 15 14 14 13 13 13 12 12 12 12 12 11 11 11 11 11
22 21 20 20 20 19 19 19 20 20 20 18 16 18 16 15 15 15 16 15 14 13 14 15 15 15 16 15 15 15 14 14 14 14 13 13 13 13 12 11 11 11 10 10
22 22 21 21 21 20 21 21 22 22 21 19 18 19 17 17 16 15 16 16 14 14 14 15 15 16 17 16 15 15 15 15 15 15 14 14 14 13 12 12 12 12 12 11
22 22 21 21 20 20 21 22 22 22 22 22 21 20 18 17 17 17 18 17 16 15 15 14 15 16 16 16 16 16 16 16 16 15 14 14 14 13 11 12 12 12 12 12
23 23 23 23 23 22 22 21 22 23 24 23 22 21 18 16 16 18 18 18 16 16 17 17 17 16 17 17 18 19 18 17 16 15 14 14 14 13 13 13 13 13 13 14
24 24 23 25 26 24 23 22 22 23 24 24 23 22 19 18 17 18 18 18 17 17 17 19 17 16 16 18 19 19 19 18 16 15 15 15 14 14 14 14 15 14 14 15
25 24 24 25 26 25 24 23 23 24 24 25 26 24 21 21 20 20 20 19 18 18 19 20 18 17 18 19 19 19 19 18 16 16 16 16 15 15 16 16 16 15 16 16
25 25 25 26 27 27 26 25 25 25 26 27 28 26 25 25 24 23 22 21 20 19 19 20 20 19 19 19 19 19 19 19 18 17 17 17 16 16 17 16 17 17 17 17
26 26 27 27 28 28 28 27 27 27 27 28 29 27 26 26 25 23 22 22 22 20 20 21 22 20 20 20 20 20 20 20 20 19 18 17 17 17 18 18 18 17 17 17
27 28 28 27 27 29 29 29 28 28 27 27 28 28 26 26 25 24 23 23 22 22 22 23 23 22 20 20 21 21 21 22 21 20 19 18 18 18 18 18 18 18 18 17
28 29 29 29 29 29 29 29 29 29 29 29 29 28 26 27 26 26 25 24 24 23 24 23 24 23 21 21 21 20 21 21 21 20 19 19 19 19 19 18 18 18 18 18
28 29 29 29 29 30 31 30 30 31 30 30 30 28 27 28 28 28 27 27 26 24 24 25 26 25 23 22 21 21 21 22 23 22 21 20 19 20 20 19 19 19 19 19
29 30 30 30 30 31 30 29 29 30 30 29 29 29 29 28 29 29 29 28 28 27 26 27 27 26 25 23 23 22 22 22 22 22 22 21 21 20 21 21 21 20 20 20
30 30 30 30 30 30 29 29 29 30 30 29 29 30 30 29 29 30 31 30 30 29 29 28 27 26 25 25 24 23 23 23 23 23 22 22 22 22 22 22 22 22 21 21
30 30 31 31 31 30 28 28 28 30 30 29 29 30 30 30 30 29 30 30 31 30 29 28 25 25 25 26 26 25 24 24 23 23 23 23 23 24 23 23 22 23 23 23
29 29 30 30 31 30 28 28 28 30 29 28 29 29 29 29 29 29 29 29 30 29 28 27 25 24 25 25 26 26 25 25 24 24 24 24 24 24 23 23 23 23 23 23
28 28 29 29 30 29 28 28 29 30 29 29 28 28 29 28 28 28 28 28 27 26 27 26 25 24 24 24 25 25 25 24 24 24 24 25 25 24 24 24 23 24 24 23
29 29 29 29 28 27 28 28 29 29 29 28 28 27 27 28 27 27 27 26 26 26 26 24 24 24 24 24 25 25 25 25 24 24 25 25 25 24 24 24 24 25 24 24
27 28 28 29 28 28 27 26 27 28 28 28 28 27 27 28 29 28 27 26 25 25 24 24 25 25 25 25 25 26 25 25 25 25 25 25 25 25 26 25 25 25 25 25
25 26 27 27 27 27 27 27 27 27 28 28 28 28 28 28 29 28 27 27 27 26 25 25 25 25 25 25 24 24 24 25 25 26 26 27 26 26 26 26 26 26 26 26
24 26 26 25 25 25 25 26 25 25 26 26 25 26 27 26 27 26 26 26 26 26 27 27 26 26 25 25 25 24 24 25 25 25 25 26 26 26 26 26 27 27 27 26
Wind_Direction
217 218 218 221 225 229 228 231 232 230 238 244 245 244 252 264 267 278 289 296 297 298 299 302 310 312 315 316 316 318 319 321 320 324 326 322 323 324 326 327 329 328 329 331
218 219 220 221 225 227 226 227 228 234 240 247 247 246 247 258 270 278 286 291 293 297 292 302 302 306 305 304 311 314 315 317 320 324 324 318 315 318 321 323 326 325 326 330
224 221 222 223 225 226 220 223 225 229 235 245 254 250 253 261 269 273 277 282 289 298 296 299 300 298 303 302 306 309 311 313 314 317 317 313 310 312 315 317 320 319 322 323
225 222 223 223 220 220 225 227 231 234 235 242 252 256 255 261 263 269 278 284 289 294 293 293 294 297 303 304 304 303 305 308 309 310 309 310 309 310 310 309 309 311 314 317
222 222 223 222 220 223 224 225 232 239 240 243 251 256 252 258 260 262 271 280 287 291 287 287 290 294 298 301 301 300 301 303 305 306 306 308 307 308 308 305 304 302 304 309
221 219 220 222 221 223 225 226 229 237 243 249 252 254 253 261 264 264 270 274 279 286 287 285 286 292 291 294 298 306 309 304 305 305 303 307 307 306 305 303 304 301 302 304
221 221 221 221 219 220 224 229 231 237 243 249 251 255 259 263 263 266 272 274 276 275 282 284 284 288 288 290 294 299 304 304 303 302 304 303 304 301 301 302 302 301 301 301
223 223 223 223 223 222 225 230 234 240 245 249 252 258 261 261 262 266 272 277 279 282 283 279 283 288 288 287 290 294 296 299 299 301 299 300 301 300 298 300 300 300 301 301
224 222 221 224 227 228 227 230 236 241 246 249 252 255 257 260 260 263 269 274 276 279 284 284 288 288 289 290 293 295 294 296 297 296 295 294 294 294 296 300 301 299 298 301
226 225 221 222 224 229 232 232 235 238 244 246 249 251 254 258 262 268 273 275 280 284 287 288 287 285 287 287 290 293 290 293 294 292 292 291 291 292 296 298 298 299 297 297
227 227 223 223 224 227 230 232 236 242 245 245 248 252 256 260 264 274 276 276 281 285 288 290 285 284 284 285 287 286 286 288 288 288 288 291 290 291 294 294 295 295 297 298
229 229 227 226 226 228 231 236 241 246 249 249 251 253 255 258 263 269 274 277 281 282 285 288 285 285 286 286 286 285 286 282 283 285 285 288 290 290 291 292 294 295 296 297
228 232 230 226 226 229 231 235 241 245 248 250 252 254 255 259 264 267 271 274 279 281 281 281 283 286 287 286 285 284 285 283 282 284 283 285 287 289 292 294 297 295 296 297
230 233 235 232 230 231 233 237 241 245 248 251 253 254 255 260 265 266 268 272 276 279 280 280 281 282 285 286 286 286 285 284 284 284 284 285 286 289 292 294 296 296 296 297
232 235 237 237 234 233 236 239 243 247 249 252 254 253 256 259 263 264 266 271 274 275 276 277 280 279 282 283 283 280 281 282 281 280 284 284 286 289 291 294 294 294 296 298
234 237 239 240 238 236 238 241 245 248 250 252 255 255 256 258 261 263 266 267 270 272 273 273 279 280 279 280 280 277 280 280 279 280 283 283 284 287 288 292 292 292 296 297
235 237 238 240 240 240 242 244 247 249 252 253 255 257 258 259 260 264 268 268 270 269 268 273 277 279 277 276 275 277 278 280 282 280 281 283 283 285 287 290 290 292 294 295
237 238 240 241 240 241 243 246 249 251 252 253 255 258 258 260 261 264 268 271 273 270 269 271 272 275 275 273 273 276 278 279 280 280 280 281 282 283 285 288 288 290 292 293
237 239 242 243 243 245 245 247 250 253 251 252 255 256 258 259 261 263 266 269 271 268 268 269 270 273 273 273 271 273 276 277 279 280 280 280 280 282 284 285 284 286 288 289
239 241 244 244 245 246 246 247 250 254 255 255 256 258 260 260 261 263 267 268 271 268 267 269 268 269 270 272 269 274 275 275 277 277 278 280 281 283 282 282 282 284 286 287
242 243 243 245 246 248 249 249 251 253 257 257 259 260 261 263 264 265 267 268 271 273 272 270 270 269 269 269 268 272 271 270 273 275 277 279 280 281 280 280 281 283 285 286
242 244 243 245 248 251 252 253 251 254 256 257 259 261 262 263 266 266 267 268 270 272 273 275 273 273 270 269 269 270 268 269 271 273 274 276 277 278 278 278 278 280 283 284
240 243 245 246 250 254 254 254 253 254 256 257 258 262 262 260 263 264 265 266 266 270 272 272 273 274 271 270 269 269 269 270 271 272 273 274 273 274 276 277 277 279 281 283
242 242 243 245 247 250 251 253 255 257 258 259 260 263 262 260 260 261 261 264 268 270 270 272 273 274 273 271 267 268 267 268 269 270 272 272 272 273 274 277 278 279 280 282
243 244 245 248 250 250 250 254 257 257 259 260 260 262 263 264 262 263 264 265 267 268 270 272 274 274 274 273 273 268 268 269 269 269 271 272 274 274 275 277 278 279 280 281
242 246 248 250 254 255 252 254 255 255 257 260 262 263 265 267 268 267 266 265 266 267 270 270 273 274 274 273 273 271 271 272 271 270 271 273 275 276 276 277 277 278 279 280
Height
5873 5877 5879 5882 5883 5885 5887 5888 5889 5890 5891 5892 5893 5894 5895 5895 5895 5895 5895 5894 5894 5894 5894 5894 5893 5892 5892 5891 5889 5888 5887 5886 5885 5883 5881 5880 5878 5877 5876 5874 5872 5871 5869 5868
5870 5873 5876 5877 5879 5880 5883 5884 5885 5887 5888 5889 5889 5890 5892 5892 5893 5893 5893 5892 5892 5892 5892 5892 5891 5890 5890 5889 5887 5886 5886 5884 5883 5881 5879 5878 5876 5875 5874 5872 5870 5869 5868 5866
5866 5871 5871 5873 5875 5876 5878 5881 5882 5884 5885 5886 5886 5887 5888 5889 5890 5890 5890 5890 5890 5889 5889 5888 5888 5887 5886 5885 5885 5885 5884 5882 5880 5879 5877 5876 5874 5873 5871 5870 5868 5867 5865 5864
5862 5865 5867 5869 5871 5873 5875 5878 5879 5880 5882 5883 5884 5884 5885 5885 5886 5887 5887 5887 5887 5887 5887 5886 5885 5885 5884 5884 5882 5882 5880 5879 5878 5876 5874 5873 5871 5870 5869 5867 5865 5864 5863 5862
5858 5861 5863 5865 5868 5870 5873 5875 5876 5877 5878 5879 5880 5880 5882 5882 5882 5883 5884 5884 5884 5884 5884 5883 5882 5882 5881 5881 5880 5878 5877 5876 5874 5873 5872 5870 5869 5867 5866 5864 5863 5861 5860 5859
5854 5857 5859 5862 5865 5867 5869 5870 5872 5872 5873 5875 5877 5877 5878 5879 5879 5879 5880 5880 5880 5880 5880 5880 5879 5879 5879 5878 5876 5875 5874 5873 5872 5870 5868 5867 5866 5864 5863 5861 5860 5859 5857 5857
5849 5852 5855 5858 5860 5862 5864 5866 5868 5868 5869 5871 5873 5872 5875 5875 5875 5875 5876 5876 5877 5877 5876 5876 5876 5876 5875 5874 5873 5872 5871 5870 5869 5867 5866 5864 5863 5861 5860 5858 5857 5856 5855 5854
5845 5848 5851 5854 5856 5858 5860 5863 5864 5866 5866 5868 5869 5868 5871 5871 5871 5871 5872 5872 5873 5873 5873 5872 5872 5871 5871 5870 5870 5868 5867 5867 5865 5864 5862 5860 5859 5858 5857 5855 5854 5853 5852 5851
5840 5844 5847 5850 5852 5854 5856 5858 5860 5862 5862 5863 5864 5865 5866 5866 5866 5867 5867 5868 5868 5868 5868 5868 5868 5867 5866 5866 5865 5865 5863 5862 5861 5860 5858 5857 5855 5854 5853 5852 5851 5850 5849 5847
5835 5839 5843 5845 5847 5849 5852 5854 5855 5856 5857 5858 5859 5860 5861 5862 5862 5863 5863 5863 5863 5864 5864 5864 5863 5861 5861 5861 5861 5860 5859 5858 5857 5855 5854 5852 5851 5850 5849 5848 5847 5846 5845 5844
5829 5833 5837 5840 5841 5844 5847 5848 5849 5851 5852 5853 5853 5857 5858 5858 5858 5858 5858 5859 5859 5859 5859 5859 5858 5857 5857 5856 5856 5855 5855 5853 5852 5851 5850 5848 5847 5847 5846 5845 5844 5842 5841 5840
5824 5827 5830 5834 5837 5838 5841 5843 5844 5846 5847 5847 5848 5853 5852 5853 5853 5854 5854 5854 5854 5854 5855 5854 5853 5853 5853 5852 5851 5850 5849 5848 5847 5846 5845 5844 5843 5842 5841 5840 5839 5838 5837 5835
5818 5821 5824 5828 5832 5833 5835 5836 5838 5840 5841 5842 5842 5847 5846 5847 5848 5848 5848 5848 5849 5850 5850 5850 5849 5848 5848 5847 5846 5845 5844 5843 5842 5841 5840 5840 5839 5838 5836 5835 5834 5833 5832 5831
5813 5815 5819 5822 5824 5827 5829 5831 5832 5833 5834 5835 5837 5839 5840 5841 5841 5842 5843 5843 5844 5844 5844 5844 5843 5843 5842 5841 5840 5840 5839 5837 5836 5836 5835 5835 5834 5833 5832 5831 5829 5828 5827 5826
5807 5809 5812 5815 5818 5820 5822 5824 5826 5827 5828 5830 5831 5832 5834 5835 5835 5836 5837 5838 5838 5838 5838 5838 5837 5837 5836 5835 5835 5834 5833 5832 5831 5830 5830 5829 5829 5828 5827 5826 5824 5823 5822 5820
5800 5803 5805 5808 5811 5813 5816 5818 5819 5821 5822 5823 5824 5825 5828 5828 5829 5830 5831 5831 5831 5832 5832 5831 5831 5830 5829 5829 5828 5828 5827 5825 5825 5824 5824 5824 5823 5822 5821 5820 5819 5818 5817 5815
5794 5797 5799 5802 5804 5806 5809 5811 5812 5814 5815 5816 5817 5819 5820 5821 5821 5822 5823 5824 5824 5824 5824 5824 5824 5824 5823 5823 5822 5822 5821 5820 5819 5818 5818 5818 5817 5817 5816 5815 5813 5812 5811 5809
5787 5790 5792 5794 5798 5799 5804 5804 5805 5806 5807 5809 5810 5811 5812 5814 5815 5815 5816 5816 5817 5817 5817 5817 5817 5817 5816 5816 5815 5815 5814 5814 5813 5813 5812 5811 5811 5811 5810 5809 5807 5806 5805 5803
5780 5782 5784 5787 5789 5792 5795 5797 5798 5799 5799 5801 5802 5803 5805 5806 5807 5808 5809 5810 5810 5810 5810 5810 5810 5809 5809 5809 5809 5808 5808 5807 5806 5806 5805 5805 5804 5804 5803 5802 5801 5800 5799 5797
5772 5775 5777 5779 5781 5783 5788 5789 5790 5792 5792 5794 5794 5796 5797 5798 5800 5802 5802 5802 5801 5801 5802 5801 5801 5801 5802 5802 5802 5801 5800 5800 5799 5799 5798 5798 5798 5797 5796 5795 5794 5793 5792 5791
5765 5767 5769 5771 5773 5775 5779 5781 5783 5785 5786 5786 5787 5788 5789 5790 5792 5793 5793 5793 5793 5793 5793 5793 5792 5793 5794 5794 5794 5793 5793 5793 5793 5792 5791 5791 5790 5790 5789 5788 5787 5786 5785 5784
5757 5760 5762 5764 5766 5770 5772 5773 5775 5776 5777 5778 5779 5780 5781 5782 5783 5784 5784 5784 5785 5785 5785 5785 5785 5785 5785 5786 5786 5786 5785 5786 5785 5784 5784 5784 5783 5782 5782 5781 5780 5779 5778 5777
5750 5753 5755 5757 5761 5762 5763 5764 5766 5768 5769 5770 5772 5773 5773 5774 5775 5775 5776 5777 5777 5778 5778 5778 5777 5778 5778 5778 5778 5778 5778 5778 5777 5777 5777 5776 5776 5775 5774 5773 5772 5771 5770 5770
5743 5745 5747 5749 5752 5754 5756 5757 5758 5760 5761 5763 5764 5765 5766 5767 5767 5768 5769 5769 5769 5770 5770 5770 5770 5770 5770 5770 5770 5770 5770 5769 5770 5770 5770 5769 5768 5767 5766 5765 5765 5764 5763 5762
5737 5738 5740 5742 5744 5745 5748 5750 5751 5752 5753 5754 5755 5757 5757 5758 5759 5760 5760 5761 5762 5762 5762 5763 5763 5762 5762 5762 5762 5762 5762 5762 5762 5762 5762 5761 5760 5759 5759 5758 5757 5756 5755 5754
5731 5732 5734 5735 5737 5738 5741 5743 5743 5744 5746 5747 5748 5749 5749 5750 5750 5751 5752 5752 5753 5754 5754 5754 5754 5754 5754 5754 5754 5754 5754 5754 5754 5754 5753 5753 5752 5751 5751 5750 5749 5748 5747 5746